This is the latest recevied weather packets stored in our database for station/object CQ0XVC-11. If no packets are shown the sender has not sent any weather packets the latest 10 day(s).
| Time | Temp. | Humidity | Pressure | Rain* | Wind** | Luminosity | Snow |
|---|---|---|---|---|---|---|---|
| 1777346998 | 12.78° C | 68% | 995.7 hPa | 0 mm | - | - | - |
| 1777346954 | 12.78° C | 68% | 995.7 hPa | 0 mm | - | - | - |
| 1777346688 | 12.78° C | 67% | 995.7 hPa | 0 mm | - | - | - |
| 1777346653 | 12.78° C | 67% | 995.7 hPa | 0 mm | - | - | - |
| 1777346388 | 13.33° C | 68% | 995.7 hPa | 0 mm | - | - | - |
| 1777346349 | 13.33° C | 68% | 995.7 hPa | 0 mm | - | - | - |
| 1777346047 | 13.33° C | 69% | 995.8 hPa | 0 mm | - | - | - |
| 1777345745 | 13.33° C | 66% | 995.6 hPa | 0 mm | - | - | - |
| 1777345443 | 13.33° C | 66% | 995.8 hPa | 0 mm | - | - | - |
| 1777345180 | 13.33° C | 67% | 995.9 hPa | 0 mm | - | - | - |
| 1777345141 | 13.33° C | 67% | 995.9 hPa | 0 mm | - | - | - |
| 1777344838 | 13.33° C | 67% | 995.9 hPa | 0 mm | - | - | - |
| 1777344536 | 13.89° C | 66% | 996 hPa | 0 mm | - | - | - |
| 1777344234 | 13.89° C | 66% | 996.1 hPa | 0 mm | - | - | - |
| 1777343932 | 13.89° C | 64% | 996.1 hPa | 0 mm | - | - | - |
| 1777343629 | 13.89° C | 64% | 996.1 hPa | 0 mm | - | - | - |
| 1777343328 | 14.44° C | 64% | 996 hPa | 0 mm | - | - | - |
| 1777343060 | 14.44° C | 67% | 996.1 hPa | 0 mm | - | - | - |
| 1777343025 | 14.44° C | 67% | 996.1 hPa | 0 mm | - | - | - |
| 1777342723 | 14.44° C | 62% | 996.1 hPa | 0 mm | - | - | - |
| 1777342452 | 15° C | 63% | 996.1 hPa | 0 mm | - | - | - |
| 1777342421 | 15° C | 63% | 996.1 hPa | 0 mm | - | - | - |
| 1777342166 | 15° C | 64% | 996.1 hPa | 0 mm | - | - | - |
| 1777342119 | 15° C | 64% | 996.1 hPa | 0 mm | - | - | - |
| 1777341816 | 15° C | 64% | 996.2 hPa | 0 mm | - | - | - |
* Rain since midnight (hover to see other rain measurements)
** Current wind speed in m/s (hover to see current wind gust speed)